Location: Bernay
(48.6766°N, 2.9386°E)
Time: 08:23:52
(UTC+00:00)

CARTOSAT-1 - Pass Details

Date: 12 January 2026
Orbit: 594 x 598 km, 97.5° (Epoch: 16 February)

Event Time Altitude Azimuth Distance (km) Brightness Sun altitude
Rises 18:29:25 0° 165° (SSE) 2,832 6.9 -21.3°
Reaches altitude 10° 18:31:35 10° 165° (SSE) 1,934 6.0 -21.7°
Maximum altitude 18:35:47 90° 94° (E) 606 3.4 -22.3°
Drops below altitude 10° 18:40:02 10° 347° (NNW) 1,949 6.2 -23.0°
Sets 18:42:13 0° 347° (NNW) 2,856 7.0 -23.4°
